Flag for Russia Weather past 2 weeks in Barnaul, Russia

Now
41 °F

Passing clouds.


Feels Like: 33 °F
Forecast: 38 / 48 °F
Wind: 15 mph from Southwest

Location: Barnaul Airport

Current Time: Sep 19, 2014 at 3:36:50 AM

Latest Report: Sep 19, 2014 at 3:00 AM


Visibility: N/A

Pressure: 29.77 "Hg

Humidity: 87%

Dew point: 37 °F

Location of BarnaulLocation

Historic Weather in Barnaul — Graph

°F

Barnaul temperature yesterday

Maximum temperature yesterday: 73 °F (at 1:30 PM)
Minimum temperature yesterday: 43 °F (at 11:30 PM)
Average temperature yesterday: 58 °F

Past Weeks' High & Low Weather Summary

 TemperatureHumidityPressure
High73 °F (Sep 18, 1:30 PM)100% (Sep 11, 2:30 AM)30.27 "Hg (Sep 11, 2:30 AM)
Low36 °F (Sep 6, 7:00 AM)29% (Sep 5, 4:00 PM)29.45 "Hg (Sep 18, 5:00 PM)
Average50 °F71%29.93 "Hg
* Reported Sep 4 2:00 AM — Sep 19 2:30 AM, Barnaul, Weather by CustomWeather, © 2014

Note: Actual official high and low records may vary slightly from our data, if they occured in-between our weather recording intervals... More about our weather records

Advertising

Barnaul weather history for previous 24 hours

 ConditionsComfort  
Time TempWeatherWind HumidityBarometerVisibility
2:30 AM
Sep 19
41 °FPassing clouds.15 mph81%29.77 "HgN/A
2:00 AM41 °FPassing clouds.15 mph81%29.74 "HgN/A
1:30 AM41 °FPassing clouds.17 mph81%29.71 "HgN/A
1:00 AM41 °FPassing clouds.20 mph87%29.71 "HgN/A
12:30 AM43 °FPassing clouds.20 mph87%29.68 "HgN/A
12:00 AM43 °FPassing clouds.20 mph87%29.65 "HgN/A
11:30 PM
Sep 18
43 °FPassing clouds.20 mph93%29.59 "HgN/A
11:00 PM45 °FPassing clouds.20 mph87%29.59 "HgN/A
10:30 PM46 °FPartly cloudy.17 mph87%29.56 "HgN/A
10:00 PM50 °FPartly cloudy.20 mph88%29.53 "HgN/A
9:30 PM52 °FPartly cloudy.15 mph94%29.53 "HgN/A
9:00 PM55 °FSprinkles. Passing clouds.10 mph88%29.50 "Hg6 mi
8:30 PM57 °FSprinkles. Broken clouds.10 mph88%29.50 "Hg6 mi
8:00 PM59 °FSprinkles. Partly sunny.10 mph77%29.47 "HgN/A
7:30 PM59 °FSprinkles. Partly sunny.8 mph77%29.47 "HgN/A
7:00 PM59 °FSprinkles. Partly sunny.20 mph77%29.47 "HgN/A
6:30 PM63 °FSprinkles. Partly sunny.17 mph68%29.50 "HgN/A
6:00 PM64 °FLight rain. Partly sunny.15 mph56%29.47 "HgN/A
5:30 PM64 °FLight rain. Partly sunny.8 mph52%29.45 "HgN/A
5:00 PM63 °FPartly sunny.8 mph64%29.45 "HgN/A
4:30 PM64 °FPartly sunny.6 mph56%29.47 "HgN/A
4:00 PM66 °FLight rain. Partly sunny.15 mph46%29.50 "HgN/A
3:30 PM72 °FLight rain. Partly sunny.17 mph31%29.50 "HgN/A
3:00 PM72 °FSunny.13 mph33%29.50 "Hg10 mi
2:30 PM72 °FSunny.15 mph33%29.50 "Hg10 mi
2:00 PM72 °FSunny.15 mph31%29.50 "Hg10 mi
1:30 PM73 °FSunny.15 mph29%29.50 "Hg10 mi
1:00 PM70 °FSunny.13 mph35%29.53 "Hg10 mi
12:30 PM68 °FSunny.13 mph40%29.53 "Hg10 mi
12:00 PM66 °FSunny.13 mph40%29.56 "Hg10 mi
11:30 AM66 °FSunny.13 mph37%29.56 "Hg10 mi
11:00 AM64 °FSunny.13 mph40%29.56 "Hg10 mi
10:30 AM63 °FSunny.13 mph45%29.59 "Hg10 mi
10:00 AM61 °FSunny.13 mph45%29.59 "Hg10 mi
9:30 AM57 °FSunny.10 mph55%29.59 "Hg10 mi
9:00 AM55 °FSunny.13 mph59%29.62 "Hg10 mi
8:30 AM54 °FSunny.13 mph67%29.62 "Hg10 mi
8:00 AM54 °FClear.10 mph67%29.62 "Hg10 mi
7:30 AM52 °FPartly cloudy.10 mph72%29.65 "HgN/A
7:00 AM54 °FPartly cloudy.10 mph72%29.65 "HgN/A
6:30 AM54 °FPartly cloudy.10 mph72%29.65 "HgN/A
6:00 AM54 °FClear.8 mph72%29.65 "Hg10 mi
5:30 AM54 °FClear.10 mph72%29.68 "Hg10 mi
5:00 AM54 °FClear.10 mph72%29.68 "Hg10 mi
4:30 AM54 °FClear.10 mph72%29.71 "Hg10 mi
4:00 AM52 °FClear.10 mph77%29.71 "Hg10 mi
3:30 AM54 °FClear.10 mph72%29.71 "Hg10 mi
3:00 AM54 °FClear.10 mph72%29.71 "Hg10 mi
Weather by CustomWeather, © 2014

See weather overviewHow to use our weather pages